Location: �quirre
(50.4736°N, 2.2351°E)
Time: 21:51:13
(UTC+00:00)

Cosmos 1937 Rocket - Pass Details

Date: 07 August 2020
Orbit: 747 x 780 km, 74.0° (Epoch: 22 September)

Event Time Altitude Azimuth Distance (km) Brightness Sun altitude
Exits shadow 03:47:05 - 223° (SW) 2,569 5.6 -6.4°
Reaches altitude 10° 03:47:44 10° 225° (SW) 2,328 5.3 -6.3°
Maximum altitude 03:52:52 49° 301° (WNW) 999 4.0 -5.6°
Drops below altitude 10° 03:58:03 10° 16° (NNE) 2,344 6.8 -4.9°
Sets 04:00:31 0° 22° (NNE) 3,274 7.8 -4.6°
